Overview Statistics Trail Chart Weather Telemetry Raw packets
 

This is the latest recevied weather packets stored in our database for station/object LY3FF-10. If no packets are shown the sender has not sent any weather packets the latest 10 day(s).

<< 6 7 8 9 10 11 12 >>
Time Temp. Humidity Pressure Rain* Wind** Luminosity Snow
1788470365 13.89° C 79% 992.2 hPa - - - -
1788469490 13.89° C 78% 992.4 hPa - - - -
1788468600 13.89° C 78% 992.4 hPa - - - -
1788467710 14.44° C 77% 992.6 hPa - - - -
1788466990 14.44° C 77% 992.7 hPa - - - -
1788466130 15° C 76% 992.7 hPa - - - -
1788465290 15° C 76% 992.9 hPa - - - -
1788464430 15° C 75% 992.9 hPa - - - -
1788463600 15.56° C 75% 993.1 hPa - - - -
1788462709 15.56° C 75% 993.1 hPa - - - -
1788461990 15.56° C 74% 993.2 hPa - - - -
1788461261 16.11° C 74% 993.2 hPa - - - -
1788460405 16.11° C 74% 993.3 hPa - - - -
1788459575 16.11° C 73% 993.4 hPa - - - -
1788458740 16.67° C 73% 993.3 hPa - - - -
1788457990 16.67° C 72% 993.4 hPa - - - -
1788457235 16.67° C 71% 993.4 hPa - - - -
1788456450 17.22° C 69% 993.5 hPa - - - -
1788455604 17.78° C 68% 993.4 hPa - - - -
1788454704 18.33° C 67% 993.4 hPa - - - -
1788453875 18.89° C 66% 993.4 hPa - - - -
1788453150 19.44° C 65% 993.4 hPa - - - -
1788452255 19.44° C 62% 993.5 hPa - - - -
1788451404 20.56° C 63% 993.5 hPa - - - -
1788450584 20.56° C 63% 993.5 hPa - - - -

* Rain since midnight (hover to see other rain measurements)
** Current wind speed in m/s (hover to see current wind gust speed)